Location: Unspecified
(40.9833°N, 0.0000°E)
Time: 17:14:58
(UTC+00:00)

BUGSAT 1 - Visible Passes

Search period start: 21 July 2019 00:00
Search period end: 31 July 2019 00:00
Orbit: 560 x 603 km, 98.0° (Epoch: 21 July)

Date Brightness Start Highest point End Pass type
(mag) Time Alt. Az. Time Alt. Az. Time Alt. Az.
21 Jul ? 01:19:41 10° ENE 01:21:53 14° E 01:22:42 13° ESE visible
21 Jul ? 02:53:20 10° N 02:57:27 50° WNW 02:59:04 32° SW visible
22 Jul ? 01:24:42 10° NE 01:27:17 16° E 01:28:05 15° ESE visible
22 Jul ? 02:58:46 10° N 03:02:48 43° WNW 03:04:27 29° WSW visible
23 Jul ? 01:29:48 10° NE 01:32:43 18° E 01:33:28 17° ESE visible
23 Jul ? 03:04:12 10° N 03:08:09 38° WNW 03:09:50 26° WSW visible
24 Jul ? 01:34:56 10° NE 01:38:07 20° E 01:38:51 19° ESE visible
24 Jul ? 03:09:39 10° N 03:13:29 33° WNW 03:15:12 24° WSW visible
25 Jul ? 01:40:07 10° NE 01:43:32 23° E 01:44:13 22° ESE visible
25 Jul ? 03:15:08 10° N 03:18:49 29° WNW 03:20:35 22° WSW visible
26 Jul ? 01:45:20 10° NE 01:48:56 26° E 01:49:36 25° ESE visible
26 Jul ? 03:20:37 10° NNW 03:24:09 26° WNW 03:25:57 19° WSW visible
27 Jul ? 01:50:35 10° NE 01:54:20 30° E 01:54:58 28° ESE visible
27 Jul ? 03:26:07 10° NNW 03:29:29 23° WNW 03:31:19 17° WSW visible
28 Jul ? 01:55:50 10° NNE 01:59:43 34° E 02:00:20 32° ESE visible
28 Jul ? 03:31:38 10° NNW 03:34:48 21° WNW 03:36:41 16° W visible
29 Jul ? 02:01:07 10° NNE 02:05:07 39° E 02:05:42 37° ESE visible
29 Jul ? 03:37:11 10° NNW 03:40:07 18° WNW 03:42:03 14° W visible
30 Jul ? 02:06:24 10° NNE 02:10:29 44° E 02:11:04 42° ESE visible
30 Jul ? 03:42:47 10° NNW 03:45:26 16° WNW 03:47:25 12° W visible
